Theta_e
303 303 306 308 308 309 309 310 310 309 312 312 313 313 313 314 315 318 317 312 314 312 314 320 320 320 319 322 322 323 322 324 325 326 326 324 322 321 320 319 320 320 321 320 319
308 303 304 307 308 308 309 310 311 310 311 313 313 313 314 315 317 316 312 310 311 314 320 319 321 321 321 322 321 320 322 325 323 322 322 320 318 319 318 319 319 320 320 318 318
310 305 303 306 308 308 309 310 312 310 311 312 312 315 313 312 321 317 309 309 310 315 317 316 318 321 322 322 322 322 321 321 321 318 318 318 318 319 318 318 319 318 318 318 317
312 308 303 304 308 309 308 310 312 312 311 312 312 312 312 315 321 313 309 310 313 314 317 317 318 319 320 320 319 317 320 318 319 318 317 317 318 317 318 318 318 318 317 317 318
312 310 305 304 307 309 309 309 312 313 312 312 312 313 313 321 317 313 314 316 315 316 316 317 318 319 319 319 318 319 320 319 318 318 318 318 317 317 317 318 318 318 318 318 318
311 311 306 305 306 310 310 308 312 313 313 313 313 312 316 322 315 315 315 315 315 316 316 316 317 316 317 318 318 319 320 318 318 318 318 317 317 317 317 319 319 319 319 319 319
311 311 308 305 309 310 308 308 312 313 312 312 311 315 321 319 315 314 315 315 315 316 317 316 315 316 318 317 319 317 316 317 318 318 318 318 316 318 319 319 320 320 320 319 318
311 311 310 305 309 308 310 309 312 313 313 313 312 317 323 315 315 315 315 316 316 316 316 315 315 316 317 318 318 316 318 318 319 318 318 317 317 319 320 320 320 321 320 318 320
312 311 311 307 309 308 310 309 312 313 313 313 316 320 321 314 314 315 315 316 316 316 317 315 315 317 318 317 317 319 320 320 320 320 319 318 318 319 320 321 321 321 319 319 322
313 312 311 310 309 308 311 312 315 313 314 316 317 317 319 316 316 315 315 315 316 317 317 317 319 318 319 318 319 321 321 321 319 319 320 319 319 320 321 322 321 320 318 321 321
314 313 312 311 309 308 309 315 317 319 316 320 320 317 317 316 315 314 315 316 316 317 319 320 319 318 320 321 320 317 317 318 318 320 320 321 320 321 322 322 322 320 321 321 321
314 314 313 311 310 309 309 318 318 317 318 320 319 319 318 316 316 316 316 316 318 319 319 319 318 319 320 318 317 316 317 319 320 321 320 320 321 321 323 323 322 320 322 321 321
309 313 314 312 311 310 315 314 315 316 318 319 318 319 318 316 315 316 318 317 318 318 318 318 319 319 318 317 316 318 319 320 321 320 319 321 323 325 324 322 320 322 322 322 321
299 304 312 313 315 316 316 315 315 318 320 319 320 319 318 317 316 316 317 317 316 316 316 318 319 317 317 316 317 318 319 320 320 319 322 323 325 324 323 321 321 322 322 323 321
298 299 302 313 316 316 316 315 316 320 325 322 320 318 318 317 319 318 317 316 315 315 317 316 317 318 317 318 318 319 318 318 319 320 323 324 325 324 323 323 322 323 322 322 320
298 299 301 315 317 317 316 315 318 323 323 322 320 318 317 317 317 319 318 316 315 316 317 317 318 318 317 316 318 318 317 319 322 324 331 327 325 325 324 324 323 322 321 320 320
298 299 307 314 317 316 315 316 320 322 321 321 319 319 318 318 317 317 317 316 316 319 318 317 318 317 317 316 317 318 321 335 334 332 334 327 326 326 325 324 324 322 320 320 320
297 303 311 317 319 316 316 318 320 321 322 322 319 317 316 317 318 318 318 318 317 318 319 318 323 319 318 318 320 322 323 331 335 331 327 325 325 324 327 326 323 321 321 321 321
302 309 314 314 318 317 318 319 319 320 320 321 322 318 318 317 316 316 317 318 318 318 319 320 318 320 320 318 317 322 321 323 328 326 324 323 324 326 326 324 323 323 323 321 320
306 312 314 318 319 318 319 319 318 317 318 319 321 321 319 317 317 317 317 317 318 318 319 319 322 321 320 317 317 319 322 328 327 330 329 324 323 323 327 326 325 323 321 321 321
308 310 315 316 316 318 319 318 317 317 317 318 319 320 320 318 317 318 319 317 317 317 317 317 323 319 319 320 319 319 321 322 323 326 329 328 323 327 323 323 323 322 322 321 320
307 309 310 308 310 314 316 316 315 317 317 317 319 320 320 319 320 320 319 318 317 317 317 317 322 326 322 320 320 321 325 325 336 328 325 325 327 323 324 322 322 322 322 320 319
308 307 308 310 313 315 315 314 313 313 315 316 318 319 320 319 320 319 321 319 317 317 318 319 324 330 325 323 321 321 321 320 324 328 328 328 324 324 323 323 324 324 321 320 319
306 306 308 310 312 313 314 315 315 317 318 315 317 319 320 319 318 318 317 318 318 316 321 319 323 324 329 326 323 326 325 322 323 331 327 325 323 322 322 323 323 323 320 320 319
306 305 306 306 307 309 310 311 311 313 315 317 317 320 321 322 319 318 318 318 317 321 317 321 321 319 320 320 319 320 320 319 321 322 327 324 323 323 323 323 322 321 320 320 318
306 307 307 308 308 307 306 306 306 307 309 313 315 318 321 322 321 320 318 318 320 316 317 321 318 318 319 319 320 320 319 319 319 320 320 320 322 321 322 320 320 320 320 318 317
303 304 305 307 307 306 306 306 306 306 307 310 312 316 316 317 317 316 318 318 319 320 320 321 321 321 324 321 322 325 321 320 321 321 321 323 321 321 320 320 320 320 318 317 315
Wind_Speed
22 16 13 12 11 12 13 12 9 4 1 3 5 3 3 6 7 7 5 7 6 7 11 14 10 9 9 12 4 8 6 11 7 15 13 13 8 7 6 5 4 2 5 13 14
30 17 13 11 11 12 12 10 7 3 0 3 3 1 8 14 15 3 1 4 4 8 13 9 9 5 11 6 3 7 8 8 7 9 10 8 6 6 4 7 7 3 9 10 11
35 23 14 10 11 12 12 10 6 2 2 3 3 6 15 16 14 8 1 3 4 7 16 9 7 10 11 6 4 4 9 8 6 8 6 7 7 7 8 7 7 7 7 9 11
38 33 16 11 9 10 11 10 6 1 2 5 6 12 16 13 1 5 3 2 5 10 16 8 6 11 8 6 3 7 5 3 6 3 4 6 7 9 8 6 4 3 5 8 9
39 37 22 11 9 9 10 9 6 2 3 6 9 14 11 9 4 7 1 5 9 11 6 6 8 5 8 2 3 10 7 2 7 6 8 5 10 11 10 8 1 3 7 8 8
39 41 28 14 9 9 9 9 4 3 3 6 9 12 10 14 9 5 3 5 5 8 3 9 5 9 11 6 6 9 8 10 10 9 6 9 12 11 11 3 3 5 8 8 8
37 39 35 16 11 10 11 9 4 2 2 4 7 10 14 7 2 6 5 2 2 5 10 3 9 10 10 10 7 7 12 13 15 12 5 6 14 12 11 1 7 8 7 7 6
36 37 35 22 14 15 13 6 4 3 3 5 9 8 9 3 2 6 9 9 5 4 6 6 10 11 8 11 8 13 14 12 11 10 5 3 13 11 3 7 10 9 6 5 7
36 36 35 25 16 16 10 1 4 4 5 7 10 13 15 7 7 7 5 9 4 7 6 7 10 9 10 9 11 14 10 13 8 12 5 10 12 14 15 11 10 9 6 3 3
34 35 35 30 16 15 9 4 7 8 10 11 17 12 13 8 8 3 6 6 5 7 11 10 7 9 10 10 10 9 8 12 9 9 8 15 19 18 13 12 12 8 3 3 5
33 33 33 30 19 13 14 8 6 7 16 14 7 13 2 2 1 9 7 8 11 9 11 15 8 11 15 5 7 9 11 14 12 13 16 15 18 18 17 16 13 9 6 4 4
33 34 34 31 24 12 14 8 11 10 11 19 22 21 14 4 7 9 5 7 14 13 12 7 14 17 3 1 6 9 13 14 15 14 9 16 21 21 18 13 12 9 8 6 5
33 33 34 33 22 13 13 13 11 12 9 19 23 22 16 12 14 14 10 11 13 13 15 16 12 6 2 7 10 12 13 15 14 14 18 23 22 23 22 9 9 9 9 6 5
34 32 31 36 10 19 15 5 10 7 6 14 15 15 15 15 16 20 6 8 12 15 15 12 13 10 9 11 11 15 9 7 11 14 14 10 14 18 9 15 13 16 15 10 2
34 33 31 23 14 12 13 10 11 5 6 7 12 6 10 15 5 10 8 9 14 16 6 8 10 8 13 13 9 11 10 12 15 17 17 21 11 15 15 16 17 20 12 4 2
34 32 33 13 14 18 11 10 7 6 10 7 9 9 13 18 19 11 9 11 11 12 16 18 10 4 9 13 3 8 11 18 20 16 14 21 15 11 5 11 10 10 5 2 6
36 33 26 14 9 15 12 10 7 9 4 6 7 10 15 17 18 17 13 14 11 9 15 19 20 15 8 10 11 13 9 5 5 10 13 10 6 12 8 11 8 7 3 2 8
38 28 18 15 14 13 9 9 15 13 17 14 6 8 14 15 20 19 16 16 19 21 14 15 14 21 15 13 6 11 10 5 5 4 10 18 7 4 12 12 12 5 2 7 10
36 22 17 11 12 6 7 12 16 16 20 23 19 10 16 17 20 18 17 19 19 17 12 9 17 14 11 8 6 8 8 2 6 9 11 10 11 8 14 9 6 4 3 10 12
25 17 10 4 3 7 9 21 23 25 25 23 26 19 19 18 21 22 17 14 21 21 11 5 9 11 12 6 12 9 5 4 4 5 7 7 9 7 10 5 4 4 9 10 11
11 7 4 5 5 7 13 21 23 23 24 24 29 26 24 24 25 23 20 19 10 8 6 8 5 6 12 12 13 9 11 8 6 6 4 6 4 6 10 8 3 9 12 13 12
9 7 13 30 10 9 15 23 23 26 25 27 27 26 21 21 22 25 26 20 12 11 14 13 6 9 15 14 18 16 14 15 6 7 8 10 14 6 2 1 7 12 8 6 9
7 11 16 15 10 12 17 25 26 27 27 27 28 27 23 20 19 21 25 18 10 15 12 8 6 7 11 15 10 9 15 14 12 10 15 9 6 5 7 9 13 15 9 11 12
6 7 12 10 12 19 20 19 23 23 29 26 25 20 23 21 21 17 26 17 10 13 10 1 9 11 8 10 3 13 15 15 15 11 13 19 24 22 19 18 19 11 11 12 11
5 12 15 12 14 19 22 25 25 27 26 26 22 21 22 12 22 24 21 19 14 12 10 8 12 16 20 22 18 17 19 18 20 20 19 21 24 21 20 17 11 10 12 13 14
5 10 11 14 19 22 20 23 27 28 26 27 21 18 21 17 17 13 23 19 14 16 16 12 12 15 20 20 20 22 21 22 23 24 26 25 25 19 14 14 14 14 14 14 13
18 22 10 13 17 18 18 25 26 25 26 27 20 11 16 20 18 24 26 28 15 14 19 18 13 11 16 17 19 20 20 21 20 20 18 20 18 12 13 14 13 13 13 11 12
Wind_Direction
15 11 11 6 3 0 357 355 358 360 33 134 148 132 13 336 306 275 25 354 316 301 302 288 234 232 233 250 243 270 261 250 358 356 76 59 31 17 13 290 332 288 19 18 1
17 10 4 1 1 358 357 1 359 0 182 161 168 358 334 326 306 80 4 320 296 311 314 250 231 224 230 240 225 249 246 19 40 20 15 23 24 330 344 319 281 36 8 354 357
15 10 0 357 357 0 0 4 10 357 202 206 237 310 318 325 279 84 208 279 281 301 287 293 283 259 253 253 161 243 258 36 59 38 359 345 310 13 292 289 1 345 323 337 338
14 9 3 353 352 358 3 2 9 18 221 231 260 313 315 318 334 86 118 174 308 294 289 262 234 248 268 216 170 270 230 330 322 45 300 291 343 279 280 300 342 338 301 310 305
12 10 3 356 344 348 355 357 356 347 234 240 263 304 331 265 93 128 152 276 286 278 306 316 301 294 262 226 279 247 266 217 254 261 271 313 277 294 286 283 60 291 295 300 304
10 9 5 356 349 343 343 342 336 334 267 252 273 302 289 281 123 156 232 254 331 327 360 327 350 344 299 276 284 345 307 287 280 267 277 274 292 293 271 225 263 301 304 307 336
9 8 5 357 351 340 328 320 289 297 277 257 285 313 288 282 178 171 241 293 316 336 315 7 317 290 317 271 245 282 277 266 243 224 245 359 285 252 227 71 301 282 305 322 310
6 7 7 357 348 340 329 288 231 242 267 290 289 291 270 121 264 223 243 249 218 284 310 295 308 286 280 299 275 258 254 264 239 169 193 139 273 302 134 289 284 292 312 292 30
1 2 5 360 344 344 344 286 209 238 263 284 285 225 290 151 212 228 242 273 318 265 233 291 271 270 267 251 256 218 266 220 176 190 204 209 259 293 282 282 277 287 277 353 340
359 358 359 360 343 338 324 268 244 245 251 259 258 279 231 232 152 249 243 255 274 294 269 229 235 237 227 230 249 342 244 281 288 284 232 244 256 263 281 275 272 256 244 291 330
354 354 353 353 342 324 319 275 218 210 235 237 204 234 114 171 232 238 207 241 253 254 266 203 265 253 255 225 7 318 291 278 280 276 269 275 280 272 276 266 249 224 208 246 290
350 350 348 344 334 299 298 262 355 315 294 231 246 264 255 190 247 216 191 238 232 241 277 226 251 250 60 340 294 295 279 276 272 266 275 271 273 279 267 253 235 200 211 232 274
346 346 345 340 329 287 243 303 317 306 275 270 239 231 229 207 240 264 178 249 257 262 254 254 278 85 216 268 271 248 257 264 288 316 292 269 265 265 236 201 180 197 222 223 265
343 343 342 340 317 325 292 348 310 337 278 261 207 211 211 200 246 238 165 273 257 253 260 263 258 210 237 252 263 266 252 306 282 284 277 320 290 292 196 191 203 209 210 216 319
341 340 335 338 300 307 349 323 323 277 288 58 147 130 203 180 124 195 194 245 255 267 198 265 221 205 235 247 276 266 314 299 281 276 277 269 266 262 253 188 203 225 184 113 286
337 337 332 337 280 267 299 320 281 242 250 191 139 191 212 211 220 140 194 221 280 266 257 257 277 268 277 272 248 268 284 274 256 248 252 259 237 274 185 202 159 103 124 104 342
334 331 321 288 272 316 317 285 260 236 243 232 192 200 220 223 226 228 219 218 234 224 232 234 233 225 225 247 234 226 254 286 287 214 236 249 271 257 288 183 124 108 107 0 321
333 331 318 269 278 283 287 258 248 267 250 275 190 237 234 237 235 219 228 252 236 243 274 279 214 200 174 224 293 206 239 239 259 263 315 321 257 265 79 86 96 114 177 245 338
337 325 301 279 236 263 255 240 243 254 268 277 286 232 267 238 259 256 239 242 257 233 229 305 241 156 156 191 208 224 222 261 316 293 263 241 267 119 117 124 164 210 352 335 324
328 311 289 28 357 279 255 254 270 281 290 281 283 283 273 255 242 236 250 260 239 259 195 281 268 196 190 213 230 232 8 212 198 252 261 267 306 304 147 177 91 342 317 337 316
307 311 68 334 296 266 252 262 271 273 268 266 278 279 275 271 279 285 225 258 232 174 162 249 215 252 164 204 226 188 229 224 249 260 265 301 268 115 359 351 15 310 317 318 343
310 304 310 318 296 274 268 274 275 272 270 278 283 278 275 277 279 283 281 240 195 189 202 225 235 251 223 221 220 237 221 211 209 234 227 265 277 318 1 4 283 272 282 347 345
303 298 290 271 269 275 280 283 287 285 279 275 266 260 270 264 266 273 282 279 262 180 191 187 235 239 248 250 184 228 246 247 255 238 249 259 255 159 218 247 276 314 339 332 332
291 302 310 307 284 275 279 293 305 301 304 286 296 298 290 262 264 253 267 261 240 192 136 94 237 224 246 170 235 220 222 228 231 239 246 243 268 279 292 300 290 318 346 325 349
261 292 315 296 296 301 304 303 301 294 290 303 298 331 302 318 276 256 254 250 199 179 178 192 243 255 254 268 272 259 256 253 244 240 235 257 262 275 273 284 341 331 329 346 340
293 315 318 299 299 288 284 280 283 284 281 278 289 306 313 283 271 307 302 257 251 194 203 182 238 252 259 260 260 260 258 257 256 257 259 265 269 276 291 343 330 330 353 340 338
307 311 306 286 274 277 280 282 284 287 285 288 281 296 291 298 335 312 292 286 249 272 199 203 206 239 263 272 271 262 252 256 260 252 260 261 273 311 330 324 336 351 335 339 342